Flag for U.S.A. Weather past 2 weeks in Provo, Utah, U.S.A.

Now
73 °F

Sunny.


Feels Like: 77 °F
Forecast: 54 / 85 °F
Wind: 6 mph from North

Location: Provo Municipal

Current Time: Sep 20, 2014 at 2:37:19 PM

Latest Report: Sep 20, 2014 at 12:50 PM


Visibility: 15 mi

Pressure: 30.19 "Hg

Humidity: 50%

Dew point: 54 °F

Location of ProvoLocation

Historic Weather in Provo — Graph

°F

Provo temperature yesterday

Maximum temperature yesterday: 81 °F (at 3:47 PM)
Minimum temperature yesterday: 61 °F (at 4:55 AM)
Average temperature yesterday: 68 °F

Past Weeks' High & Low Weather Summary

 TemperatureHumidityPressure
High90 °F (Sep 7, 3:53 PM)94% (Sep 9, 5:53 PM)30.29 "Hg (Sep 9, 5:53 PM)
Low45 °F (Sep 12, 4:35 AM)15% (Sep 6, 5:50 PM)29.81 "Hg (Sep 18, 6:57 PM)
Average63 °F58%30.08 "Hg
* Reported Sep 5 12:55 PM — Sep 20 12:50 PM, Provo, Weather by CustomWeather, © 2014

Note: Actual official high and low records may vary slightly from our data, if they occured in-between our weather recording intervals... More about our weather records

Advertising

Provo weather history for previous 24 hours

 ConditionsComfort  
Time TempWeatherWind HumidityBarometerVisibility
12:50 PM
Sep 20
73 °FSunny.6 mph50%30.19 "Hg15 mi
11:52 AM72 °FSunny.5 mph53%30.21 "Hg15 mi
10:52 AM70 °FSunny.No wind53%30.21 "Hg15 mi
6:49 AM55 °FClear.No wind77%30.17 "Hg15 mi
6:35 AM57 °FClear.5 mph72%30.17 "Hg10 mi
6:15 AM57 °FClear.5 mph72%30.17 "Hg10 mi
5:55 AM59 °FClear.No wind68%30.16 "Hg10 mi
5:35 AM57 °FClear.5 mph72%30.16 "Hg10 mi
5:15 AM59 °FClear.3 mph68%30.16 "Hg10 mi
4:55 AM59 °FClear.No wind68%30.15 "Hg10 mi
4:35 AM57 °FClear.No wind72%30.15 "Hg10 mi
4:15 AM57 °FClear.No wind77%30.15 "Hg10 mi
3:55 AM57 °FClear.No wind77%30.15 "Hg10 mi
3:35 AM57 °FClear.5 mph72%30.15 "Hg10 mi
3:15 AM59 °FClear.8 mph72%30.14 "Hg10 mi
2:55 AM61 °FClear.6 mph68%30.14 "Hg10 mi
2:35 AM63 °FClear.No wind64%30.14 "Hg10 mi
2:15 AM63 °FClear.No wind68%30.14 "Hg10 mi
1:55 AM61 °FClear.9 mph72%30.13 "Hg10 mi
1:35 AM61 °FClear.6 mph72%30.13 "Hg10 mi
1:15 AM61 °FClear.7 mph72%30.12 "Hg10 mi
12:55 AM63 °FClear.7 mph73%30.12 "Hg10 mi
12:35 AM64 °FClear.6 mph68%30.11 "Hg10 mi
12:15 AM63 °FClear.8 mph73%30.11 "Hg10 mi
11:55 PM
Sep 19
63 °FClear.7 mph73%30.11 "Hg10 mi
11:35 PM63 °FClear.7 mph77%30.11 "Hg10 mi
11:15 PM64 °FClear.8 mph73%30.11 "Hg10 mi
10:55 PM66 °FClear.5 mph64%30.10 "Hg10 mi
10:35 PM68 °FClear.No wind60%30.09 "Hg10 mi
10:15 PM70 °FClear.5 mph57%30.09 "Hg10 mi
9:55 PM72 °FClear.8 mph50%30.09 "Hg10 mi
9:35 PM72 °FClear.10 mph53%30.08 "Hg10 mi
9:15 PM72 °FClear.10 mph57%30.07 "Hg10 mi
8:48 PM72 °FPassing clouds.9 mph53%30.06 "Hg15 mi
7:47 PM73 °FScattered clouds.13 mph53%30.04 "Hg15 mi
6:50 PM75 °FScattered clouds.12 mph54%30.03 "Hg15 mi
4:55 PM81 °FScattered clouds.14 mph42%30.02 "Hg15 mi
3:47 PM81 °FScattered clouds.10 mph42%30.03 "Hg15 mi
2:49 PM79 °FScattered clouds.No wind39%30.05 "Hg15 mi
Weather by CustomWeather, © 2014

See weather overviewHow to use our weather pages